Flag for U.S.A. Weather past 2 weeks in Salt Lake City, Utah, U.S.A.

Now
79 °F

Passing clouds.


Feels Like: 78 °F
Forecast: 69 / 89 °F
Wind: 5 mph from Southeast

Location: Salt Lake City International Airport

Current Time: Aug 31, 2015 at 10:17:39 PM

Latest Report: Aug 31, 2015 at 8:53 PM


Visibility: 10 mi

Pressure: 29.79 "Hg (25.64 "Hg at 1312m altitude)

Humidity: 28%

Dew point: 43 °F

Location of Salt Lake CityLocation

Historic Weather in Salt Lake City — Graph

°F

Salt Lake City temperature yesterday

Maximum temperature yesterday: 87 °F (at 3:53 PM)
Minimum temperature yesterday: 73 °F (at 11:53 PM)
Average temperature yesterday: 81 °F

Past Weeks' High & Low Weather Summary

 TemperatureHumidityPressure
High97 °F (Aug 24, 2:53 PM)73% (Aug 27, 3:53 AM)30.09 "Hg (Aug 27, 3:53 AM)
Low60 °F (Aug 18, 6:53 AM)8% (Aug 21, 4:53 PM)29.59 "Hg (Aug 21, 6:53 PM)
Average78 °F29%29.86 "Hg
* Reported Aug 16 8:53 PM — Aug 31 8:53 PM, Salt Lake City, Weather by CustomWeather, © 2015

Note: Actual official high and low records may vary slightly from our data, if they occured in-between our weather recording intervals... More about our weather records

Advertising

Salt Lake City weather history for previous 24 hours

 ConditionsComfort  
Time TempWeatherWind HumidityBarometerVisibility
8:53 PM
Mon, Aug 31
79 °FPassing clouds.5 mph28%29.79 "Hg10 mi
7:53 PM82 °FPassing clouds.6 mph24%29.78 "Hg10 mi
6:53 PM86 °FPassing clouds.8 mph20%29.80 "Hg10 mi
5:53 PM86 °FPassing clouds.7 mph19%29.80 "Hg10 mi
4:53 PM86 °FPassing clouds.9 mph20%29.81 "Hg10 mi
3:53 PM86 °FPassing clouds.13 mph20%29.83 "Hg10 mi
2:53 PM85 °FPassing clouds.10 mph21%29.86 "Hg10 mi
1:53 PM83 °FPassing clouds.9 mph21%29.88 "Hg10 mi
12:53 PM81 °FPassing clouds.8 mph23%29.90 "Hg10 mi
11:53 AM79 °FPassing clouds.No wind19%29.92 "Hg10 mi
10:53 AM76 °FPassing clouds.6 mph29%29.93 "Hg10 mi
9:53 AM73 °FPassing clouds.No wind34%29.94 "Hg10 mi
8:53 AM68 °FPassing clouds.5 mph42%29.94 "Hg10 mi
7:53 AM65 °FScattered clouds.8 mph42%29.92 "Hg10 mi
6:53 AM63 °FPassing clouds.5 mph43%29.91 "Hg10 mi
5:53 AM67 °FPassing clouds.10 mph45%29.85 "Hg10 mi
4:53 AM67 °FPassing clouds.3 mph36%29.88 "Hg10 mi
3:53 AM66 °FPassing clouds.9 mph45%29.86 "Hg10 mi
2:53 AM68 °FPassing clouds.5 mph44%29.85 "Hg10 mi
1:53 AM69 °FPassing clouds.8 mph39%29.84 "Hg10 mi
12:53 AM71 °FPassing clouds.3 mph42%29.82 "Hg10 mi
11:53 PM
Sun, Aug 30
73 °FPassing clouds.8 mph40%29.81 "Hg10 mi
10:53 PM74 °FPassing clouds.8 mph37%29.78 "Hg10 mi
Weather by CustomWeather, © 2015

See weather overviewHow to use our weather pages